Year,Month,Day,Hour,Minute,Value (Times are PST for temperature in C)
2017,07,18,00,00,13.80
2017,07,18,00,01,13.80
2017,07,18,00,02,13.80
2017,07,18,00,03,13.80
2017,07,18,00,04,13.80
2017,07,18,00,05,13.80
2017,07,18,00,06,13.80
2017,07,18,00,07,13.80
2017,07,18,00,08,13.80
2017,07,18,00,09,13.80
2017,07,18,00,10,13.80
2017,07,18,00,11,13.80
2017,07,18,00,12,13.80
2017,07,18,00,13,13.80
2017,07,18,00,14,13.80
2017,07,18,00,15,13.70
2017,07,18,00,16,13.70
2017,07,18,00,17,13.70
2017,07,18,00,18,13.70
2017,07,18,00,19,13.70
2017,07,18,00,20,13.70
2017,07,18,00,21,13.60
2017,07,18,00,22,13.60
2017,07,18,00,23,13.60
2017,07,18,00,24,13.60
2017,07,18,00,25,13.60
2017,07,18,00,26,13.50
2017,07,18,00,27,13.50
2017,07,18,00,28,13.50
2017,07,18,00,29,13.50
2017,07,18,00,30,13.40
2017,07,18,00,31,13.40
2017,07,18,00,32,13.40
2017,07,18,00,33,13.30
2017,07,18,00,34,13.30
2017,07,18,00,35,13.30
2017,07,18,00,36,13.30
2017,07,18,00,37,13.20
2017,07,18,00,38,13.20
2017,07,18,00,39,13.20
2017,07,18,00,40,13.20
2017,07,18,00,41,13.10
2017,07,18,00,42,13.10
2017,07,18,00,43,13.00
2017,07,18,00,44,13.00
2017,07,18,00,45,13.00
2017,07,18,00,46,12.90
2017,07,18,00,47,12.90
2017,07,18,00,48,12.80
2017,07,18,00,49,12.80
2017,07,18,00,50,12.80
2017,07,18,00,51,12.70
2017,07,18,00,52,12.70
2017,07,18,00,53,12.70
2017,07,18,00,54,12.70
2017,07,18,00,55,12.60
2017,07,18,00,56,12.60
2017,07,18,00,57,12.60
2017,07,18,00,58,12.50
2017,07,18,00,59,12.50
2017,07,18,01,00,12.50
2017,07,18,01,01,12.40
2017,07,18,01,02,12.40
2017,07,18,01,03,12.40
2017,07,18,01,04,12.30
2017,07,18,01,05,12.30
2017,07,18,01,06,12.30
2017,07,18,01,07,12.20
2017,07,18,01,08,12.20
2017,07,18,01,09,12.20
2017,07,18,01,10,12.20
2017,07,18,01,11,12.10
2017,07,18,01,12,12.10
2017,07,18,01,13,12.10
2017,07,18,01,14,12.10
2017,07,18,01,15,12.10
2017,07,18,01,16,12.00
2017,07,18,01,17,12.00
2017,07,18,01,18,12.00
2017,07,18,01,19,12.00
2017,07,18,01,20,11.90
2017,07,18,01,21,11.90
2017,07,18,01,22,11.90
2017,07,18,01,23,11.90
2017,07,18,01,24,11.80
2017,07,18,01,25,11.80
2017,07,18,01,26,11.80
2017,07,18,01,27,11.80
2017,07,18,01,28,11.70
2017,07,18,01,29,11.70
2017,07,18,01,30,11.70
2017,07,18,01,31,11.70
2017,07,18,01,32,11.60
2017,07,18,01,33,11.60
2017,07,18,01,34,11.60
2017,07,18,01,35,11.60
2017,07,18,01,36,11.60
2017,07,18,01,37,11.50
2017,07,18,01,38,11.50
2017,07,18,01,39,11.50
2017,07,18,01,40,11.40
2017,07,18,01,41,11.40
2017,07,18,01,42,11.40
2017,07,18,01,43,11.40
2017,07,18,01,44,11.40
2017,07,18,01,45,11.40
2017,07,18,01,46,11.30
2017,07,18,01,47,11.30
2017,07,18,01,48,11.30
2017,07,18,01,49,11.30
2017,07,18,01,50,11.30
2017,07,18,01,51,11.30
2017,07,18,01,52,11.30
2017,07,18,01,53,11.20
2017,07,18,01,54,11.20
2017,07,18,01,55,11.20
2017,07,18,01,56,11.20
2017,07,18,01,57,11.20
2017,07,18,01,58,11.20
2017,07,18,01,59,11.20
2017,07,18,02,00,11.20
2017,07,18,02,01,11.10
2017,07,18,02,02,11.10
2017,07,18,02,03,11.10
2017,07,18,02,04,11.10
2017,07,18,02,05,11.10
2017,07,18,02,06,11.10
2017,07,18,02,07,11.10
2017,07,18,02,08,11.10
2017,07,18,02,09,11.00
2017,07,18,02,10,11.00
2017,07,18,02,11,11.00
2017,07,18,02,12,11.00
2017,07,18,02,13,10.90
2017,07,18,02,14,10.90
2017,07,18,02,15,10.90
2017,07,18,02,16,10.90
2017,07,18,02,17,10.90
2017,07,18,02,18,10.90
2017,07,18,02,19,10.90
2017,07,18,02,20,10.90
2017,07,18,02,21,10.90
2017,07,18,02,22,10.90
2017,07,18,02,23,10.90
2017,07,18,02,24,10.90
2017,07,18,02,25,10.90
2017,07,18,02,26,10.90
2017,07,18,02,27,10.90
2017,07,18,02,28,10.90
2017,07,18,02,29,10.90
2017,07,18,02,30,10.90
2017,07,18,02,31,10.90
2017,07,18,02,32,10.90
2017,07,18,02,33,10.90
2017,07,18,02,34,10.80
2017,07,18,02,35,10.80
2017,07,18,02,36,10.80
2017,07,18,02,37,10.80
2017,07,18,02,38,10.80
2017,07,18,02,39,10.80
2017,07,18,02,40,10.80
2017,07,18,02,41,10.80
2017,07,18,02,42,10.80
2017,07,18,02,43,10.80
2017,07,18,02,44,10.80
2017,07,18,02,45,10.80
2017,07,18,02,46,10.80
2017,07,18,02,47,10.80
2017,07,18,02,48,10.80
2017,07,18,02,49,10.70
2017,07,18,02,50,10.70
2017,07,18,02,51,10.70
2017,07,18,02,52,10.70
2017,07,18,02,53,10.70
2017,07,18,02,54,10.70
2017,07,18,02,55,10.70
2017,07,18,02,56,10.70
2017,07,18,02,57,10.70
2017,07,18,02,58,10.70
2017,07,18,02,59,10.70
2017,07,18,03,00,10.60
2017,07,18,03,01,10.60
2017,07,18,03,02,10.70
2017,07,18,03,03,10.70
2017,07,18,03,04,10.70
2017,07,18,03,05,10.70
2017,07,18,03,06,10.60
2017,07,18,03,07,10.60
2017,07,18,03,08,10.60
2017,07,18,03,09,10.60
2017,07,18,03,10,10.60
2017,07,18,03,11,10.60
2017,07,18,03,12,10.60
2017,07,18,03,13,10.60
2017,07,18,03,14,10.60
2017,07,18,03,15,10.50
2017,07,18,03,16,10.50
2017,07,18,03,17,10.50
2017,07,18,03,18,10.60
2017,07,18,03,19,10.50
2017,07,18,03,20,10.60
2017,07,18,03,21,10.60
2017,07,18,03,22,10.60
2017,07,18,03,23,10.60
2017,07,18,03,24,10.60
2017,07,18,03,25,10.60
2017,07,18,03,26,10.60
2017,07,18,03,27,10.50
2017,07,18,03,28,10.50
2017,07,18,03,29,10.50
2017,07,18,03,30,10.50
2017,07,18,03,31,10.50
2017,07,18,03,32,10.40
2017,07,18,03,33,10.40
2017,07,18,03,34,10.40
2017,07,18,03,35,10.40
2017,07,18,03,36,10.40
2017,07,18,03,37,10.40
2017,07,18,03,38,10.40
2017,07,18,03,39,10.40
2017,07,18,03,40,10.40
2017,07,18,03,41,10.40
2017,07,18,03,42,10.40
2017,07,18,03,43,10.40
2017,07,18,03,44,10.40
2017,07,18,03,45,10.40
2017,07,18,03,46,10.40
2017,07,18,03,47,10.40
2017,07,18,03,48,10.40
2017,07,18,03,49,10.40
2017,07,18,03,50,10.40
2017,07,18,03,51,10.40
2017,07,18,03,52,10.40
2017,07,18,03,53,10.40
2017,07,18,03,54,10.40
2017,07,18,03,55,10.40
2017,07,18,03,56,10.40
2017,07,18,03,57,10.40
2017,07,18,03,58,10.40
2017,07,18,03,59,10.40
2017,07,18,04,00,10.30
2017,07,18,04,01,10.30
2017,07,18,04,02,10.30
2017,07,18,04,03,10.30
2017,07,18,04,04,10.30
2017,07,18,04,05,10.30
2017,07,18,04,06,10.30
2017,07,18,04,07,10.30
2017,07,18,04,08,10.30
2017,07,18,04,09,10.30
2017,07,18,04,10,10.30
2017,07,18,04,11,10.30
2017,07,18,04,12,10.30
2017,07,18,04,13,10.20
2017,07,18,04,14,10.20
2017,07,18,04,15,10.20
2017,07,18,04,16,10.20
2017,07,18,04,17,10.20
2017,07,18,04,18,10.20
2017,07,18,04,19,10.20
2017,07,18,04,20,10.20
2017,07,18,04,21,10.20
2017,07,18,04,22,10.20
2017,07,18,04,23,10.20
2017,07,18,04,24,10.20
2017,07,18,04,25,10.20
2017,07,18,04,26,10.20
2017,07,18,04,27,10.20
2017,07,18,04,28,10.20
2017,07,18,04,29,10.20
2017,07,18,04,30,10.10
2017,07,18,04,31,10.10
2017,07,18,04,32,10.10
2017,07,18,04,33,10.10
2017,07,18,04,34,10.10
2017,07,18,04,35,10.10
2017,07,18,04,36,10.10
2017,07,18,04,37,10.10
2017,07,18,04,38,10.10
2017,07,18,04,39,10.10
2017,07,18,04,40,10.10
2017,07,18,04,41,10.00
2017,07,18,04,42,10.00
2017,07,18,04,43,10.00
2017,07,18,04,44,10.00
2017,07,18,04,45,10.00
2017,07,18,04,46,10.00
2017,07,18,04,47,10.00
2017,07,18,04,48,10.00
2017,07,18,04,49,10.00
2017,07,18,04,50,10.00
2017,07,18,04,51,9.90
2017,07,18,04,52,9.90
2017,07,18,04,53,9.90
2017,07,18,04,54,9.90
2017,07,18,04,55,9.90
2017,07,18,04,56,9.90
2017,07,18,04,57,9.90
2017,07,18,04,58,9.90
2017,07,18,04,59,9.90
2017,07,18,05,00,9.90
2017,07,18,05,01,9.90
2017,07,18,05,02,9.90
2017,07,18,05,03,9.90
2017,07,18,05,04,9.90
2017,07,18,05,05,9.80
2017,07,18,05,06,9.80
2017,07,18,05,07,9.90
2017,07,18,05,08,9.90
2017,07,18,05,09,9.80
2017,07,18,05,10,9.80
2017,07,18,05,11,9.80
2017,07,18,05,12,9.80
2017,07,18,05,13,9.80
2017,07,18,05,14,9.80
2017,07,18,05,15,9.80
2017,07,18,05,16,9.80
2017,07,18,05,17,9.80
2017,07,18,05,18,9.80
2017,07,18,05,19,9.80
2017,07,18,05,20,9.80
2017,07,18,05,21,9.80
2017,07,18,05,22,9.80
2017,07,18,05,23,9.70
2017,07,18,05,24,9.70
2017,07,18,05,25,9.70
2017,07,18,05,26,9.70
2017,07,18,05,27,9.70
2017,07,18,05,28,9.70
2017,07,18,05,29,9.70
2017,07,18,05,30,9.70
2017,07,18,05,31,9.70
2017,07,18,05,32,9.70
2017,07,18,05,33,9.60
2017,07,18,05,34,9.60
2017,07,18,05,35,9.60
2017,07,18,05,36,9.60
2017,07,18,05,37,9.60
2017,07,18,05,38,9.60
2017,07,18,05,39,9.60
2017,07,18,05,40,9.60
2017,07,18,05,41,9.60
2017,07,18,05,42,9.50
2017,07,18,05,43,9.50
2017,07,18,05,44,9.50
2017,07,18,05,45,9.50
2017,07,18,05,46,9.50
2017,07,18,05,47,9.50
2017,07,18,05,48,9.50
2017,07,18,05,49,9.50
2017,07,18,05,50,9.50
2017,07,18,05,51,9.50
2017,07,18,05,52,9.50
2017,07,18,05,53,9.50
2017,07,18,05,54,9.50
2017,07,18,05,55,9.50
2017,07,18,05,56,9.50
2017,07,18,05,57,9.60
2017,07,18,05,58,9.60
2017,07,18,05,59,9.60
2017,07,18,06,00,9.60
2017,07,18,06,01,9.60
2017,07,18,06,02,9.60
2017,07,18,06,03,9.50
2017,07,18,06,04,9.50
2017,07,18,06,05,9.50
2017,07,18,06,06,9.50
2017,07,18,06,07,9.50
2017,07,18,06,08,9.50
2017,07,18,06,09,9.50
2017,07,18,06,10,9.60
2017,07,18,06,11,9.50
2017,07,18,06,12,9.60
2017,07,18,06,13,9.60
2017,07,18,06,14,9.60
2017,07,18,06,15,9.60
2017,07,18,06,16,9.60
2017,07,18,06,17,9.70
2017,07,18,06,18,9.70
2017,07,18,06,19,9.70
2017,07,18,06,20,9.70
2017,07,18,06,21,9.70
2017,07,18,06,22,9.80
2017,07,18,06,23,9.80
2017,07,18,06,24,9.80
2017,07,18,06,25,9.80
2017,07,18,06,26,9.80
2017,07,18,06,27,9.80
2017,07,18,06,28,9.80
2017,07,18,06,29,9.80
2017,07,18,06,30,9.80
2017,07,18,06,31,9.80
2017,07,18,06,32,9.80
2017,07,18,06,33,9.80
2017,07,18,06,34,9.90
2017,07,18,06,35,9.90
2017,07,18,06,36,9.90
2017,07,18,06,37,9.90
2017,07,18,06,38,9.90
2017,07,18,06,39,10.00
2017,07,18,06,40,10.00
2017,07,18,06,41,10.00
2017,07,18,06,42,10.10
2017,07,18,06,43,10.10
2017,07,18,06,44,10.10
2017,07,18,06,45,10.10
2017,07,18,06,46,10.10
2017,07,18,06,47,10.20
2017,07,18,06,48,10.20
2017,07,18,06,49,10.20
2017,07,18,06,50,10.20
2017,07,18,06,51,10.20
2017,07,18,06,52,10.30
2017,07,18,06,53,10.30
2017,07,18,06,54,10.40
2017,07,18,06,55,10.40
2017,07,18,06,56,10.40
2017,07,18,06,57,10.50
2017,07,18,06,58,10.50
2017,07,18,06,59,10.60
2017,07,18,07,00,10.60
2017,07,18,07,01,10.60
2017,07,18,07,02,10.60
2017,07,18,07,03,10.70
2017,07,18,07,04,10.70
2017,07,18,07,05,10.70
2017,07,18,07,06,10.70
2017,07,18,07,07,10.70
2017,07,18,07,08,10.80
2017,07,18,07,09,10.80
2017,07,18,07,10,10.80
2017,07,18,07,11,10.90
2017,07,18,07,12,10.90
2017,07,18,07,13,10.90
2017,07,18,07,14,11.00
2017,07,18,07,15,11.00
2017,07,18,07,16,11.10
2017,07,18,07,17,11.10
2017,07,18,07,18,11.10
2017,07,18,07,19,11.20
2017,07,18,07,20,11.20
2017,07,18,07,21,11.20
2017,07,18,07,22,11.20
2017,07,18,07,23,11.20
2017,07,18,07,24,11.30
2017,07,18,07,25,11.30
2017,07,18,07,26,11.40
2017,07,18,07,27,11.40
2017,07,18,07,28,11.50
2017,07,18,07,29,11.60
2017,07,18,07,30,11.60
2017,07,18,07,31,11.70
2017,07,18,07,32,11.70
2017,07,18,07,33,11.80
2017,07,18,07,34,11.80
2017,07,18,07,35,11.80
2017,07,18,07,36,11.90
2017,07,18,07,37,11.90
2017,07,18,07,38,12.00
2017,07,18,07,39,12.00
2017,07,18,07,40,12.10
2017,07,18,07,41,12.10
2017,07,18,07,42,12.20
2017,07,18,07,43,12.20
2017,07,18,07,44,12.30
2017,07,18,07,45,12.30
2017,07,18,07,46,12.40
2017,07,18,07,47,12.40
2017,07,18,07,48,12.50
2017,07,18,07,49,12.60
2017,07,18,07,50,12.60
2017,07,18,07,51,12.70
2017,07,18,07,52,12.70
2017,07,18,07,53,12.80
2017,07,18,07,54,12.80
2017,07,18,07,55,12.80
2017,07,18,07,56,12.90
2017,07,18,07,57,12.90
2017,07,18,07,58,12.90
2017,07,18,07,59,13.00
2017,07,18,08,00,13.00
2017,07,18,08,01,13.10
2017,07,18,08,02,13.10
2017,07,18,08,03,13.10
2017,07,18,08,04,13.20
2017,07,18,08,05,13.20
2017,07,18,08,06,13.30
2017,07,18,08,07,13.40
2017,07,18,08,08,13.50
2017,07,18,08,09,13.60
2017,07,18,08,10,13.70
2017,07,18,08,11,13.80
2017,07,18,08,12,13.90
2017,07,18,08,13,14.00
2017,07,18,08,14,14.00
2017,07,18,08,15,14.10
2017,07,18,08,16,14.10
2017,07,18,08,17,14.20
2017,07,18,08,18,14.30
2017,07,18,08,19,14.30
2017,07,18,08,20,14.40
2017,07,18,08,21,14.40
2017,07,18,08,22,14.50
2017,07,18,08,23,14.60
2017,07,18,08,24,14.60
2017,07,18,08,25,14.70
2017,07,18,08,26,14.70
2017,07,18,08,27,14.80
2017,07,18,08,28,14.90
2017,07,18,08,29,14.90
2017,07,18,08,30,15.00
2017,07,18,08,31,15.10
2017,07,18,08,32,15.20
2017,07,18,08,33,15.20
2017,07,18,08,34,15.30
2017,07,18,08,35,15.40
2017,07,18,08,36,15.40
2017,07,18,08,37,15.50
2017,07,18,08,38,15.60
2017,07,18,08,39,15.70
2017,07,18,08,40,15.80
2017,07,18,08,41,15.90
2017,07,18,08,42,16.10
2017,07,18,08,43,16.20
2017,07,18,08,44,16.30
2017,07,18,08,45,16.50
2017,07,18,08,46,16.70
2017,07,18,08,47,16.80
2017,07,18,08,48,16.90
2017,07,18,08,49,17.10
2017,07,18,08,50,17.20
2017,07,18,08,51,17.30
2017,07,18,08,52,17.40
2017,07,18,08,53,17.50
2017,07,18,08,54,17.60
2017,07,18,08,55,17.70
2017,07,18,08,56,17.80
2017,07,18,08,57,17.90
2017,07,18,08,58,18.00
2017,07,18,08,59,18.10
2017,07,18,09,00,18.20
2017,07,18,09,01,18.20
2017,07,18,09,02,18.30
2017,07,18,09,03,18.30
2017,07,18,09,04,18.40
2017,07,18,09,05,18.40
2017,07,18,09,06,18.50
2017,07,18,09,07,18.50
2017,07,18,09,08,18.60
2017,07,18,09,09,18.60
2017,07,18,09,10,18.60
2017,07,18,09,11,18.70
2017,07,18,09,12,18.70
2017,07,18,09,13,18.80
2017,07,18,09,14,18.80
2017,07,18,09,15,18.90
2017,07,18,09,16,19.00
2017,07,18,09,17,19.00
2017,07,18,09,18,19.10
2017,07,18,09,19,19.20
2017,07,18,09,20,19.30
2017,07,18,09,21,19.30
2017,07,18,09,22,19.40
2017,07,18,09,23,19.50
2017,07,18,09,24,19.60
2017,07,18,09,25,19.70
2017,07,18,09,26,19.80
2017,07,18,09,27,19.80
2017,07,18,09,28,19.80
2017,07,18,09,29,19.80
2017,07,18,09,30,19.80
2017,07,18,09,31,19.80
2017,07,18,09,32,19.80
2017,07,18,09,33,19.90
2017,07,18,09,34,19.90
2017,07,18,09,35,20.00
2017,07,18,09,36,20.00
2017,07,18,09,37,20.10
2017,07,18,09,38,20.20
2017,07,18,09,39,20.20
2017,07,18,09,40,20.20
2017,07,18,09,41,20.30
2017,07,18,09,42,20.30
2017,07,18,09,43,20.30
2017,07,18,09,44,20.30
2017,07,18,09,45,20.30
2017,07,18,09,46,20.20
2017,07,18,09,47,20.20
2017,07,18,09,48,20.20
2017,07,18,09,49,20.20
2017,07,18,09,50,20.20
2017,07,18,09,51,20.20
2017,07,18,09,52,20.20
2017,07,18,09,53,20.20
2017,07,18,09,54,20.20
2017,07,18,09,55,20.30
2017,07,18,09,56,20.30
2017,07,18,09,57,20.40
2017,07,18,09,58,20.40
2017,07,18,09,59,20.50
2017,07,18,10,00,20.50
2017,07,18,10,01,20.60
2017,07,18,10,02,20.70
2017,07,18,10,03,20.70
2017,07,18,10,04,20.80
2017,07,18,10,05,20.80
2017,07,18,10,06,20.80
2017,07,18,10,07,20.90
2017,07,18,10,08,20.90
2017,07,18,10,09,21.00
2017,07,18,10,10,21.10
2017,07,18,10,11,21.20
2017,07,18,10,12,21.20
2017,07,18,10,13,21.20
2017,07,18,10,14,21.20
2017,07,18,10,15,21.20
2017,07,18,10,16,21.30
2017,07,18,10,17,21.40
2017,07,18,10,18,21.40
2017,07,18,10,19,21.50
2017,07,18,10,20,21.60
2017,07,18,10,21,21.70
2017,07,18,10,22,21.70
2017,07,18,10,23,21.80
2017,07,18,10,24,21.90
2017,07,18,10,25,22.00
2017,07,18,10,26,22.00
2017,07,18,10,27,22.10
2017,07,18,10,28,22.20
2017,07,18,10,29,22.20
2017,07,18,10,30,22.30
2017,07,18,10,31,22.30
2017,07,18,10,32,22.40
2017,07,18,10,33,22.40
2017,07,18,10,34,22.40
2017,07,18,10,35,22.40
2017,07,18,10,36,22.40
2017,07,18,10,37,22.50
2017,07,18,10,38,22.50
2017,07,18,10,39,22.60
2017,07,18,10,40,22.60
2017,07,18,10,41,22.60
2017,07,18,10,42,22.60
2017,07,18,10,43,22.70
2017,07,18,10,44,22.70
2017,07,18,10,45,22.70
2017,07,18,10,46,22.60
2017,07,18,10,47,22.60
2017,07,18,10,48,22.60
2017,07,18,10,49,22.60
2017,07,18,10,50,22.50
2017,07,18,10,51,22.40
2017,07,18,10,52,22.30
2017,07,18,10,53,22.30
2017,07,18,10,54,22.20
2017,07,18,10,55,22.20
2017,07,18,10,56,22.30
2017,07,18,10,57,22.30
2017,07,18,10,58,22.40
2017,07,18,10,59,22.50
2017,07,18,11,00,22.60
2017,07,18,11,01,22.70
2017,07,18,11,02,22.70
2017,07,18,11,03,22.80
2017,07,18,11,04,22.80
2017,07,18,11,05,22.80
2017,07,18,11,06,22.80
2017,07,18,11,07,22.80
2017,07,18,11,08,22.80
2017,07,18,11,09,22.80
2017,07,18,11,10,22.80
2017,07,18,11,11,22.80
2017,07,18,11,12,22.80
2017,07,18,11,13,22.80
2017,07,18,11,14,22.80
2017,07,18,11,15,22.80
2017,07,18,11,16,22.90
2017,07,18,11,17,23.00
2017,07,18,11,18,23.00
2017,07,18,11,19,23.10
2017,07,18,11,20,23.20
2017,07,18,11,21,23.30
2017,07,18,11,22,23.40
2017,07,18,11,23,23.40
2017,07,18,11,24,23.40
2017,07,18,11,25,23.50
2017,07,18,11,26,23.50
2017,07,18,11,27,23.40
2017,07,18,11,28,23.50
2017,07,18,11,29,23.50
2017,07,18,11,30,23.60
2017,07,18,11,31,23.70
2017,07,18,11,32,23.80
2017,07,18,11,33,23.90
2017,07,18,11,34,23.90
2017,07,18,11,35,24.00
2017,07,18,11,36,24.00
2017,07,18,11,37,24.10
2017,07,18,11,38,24.10
2017,07,18,11,39,24.10
2017,07,18,11,40,24.10
2017,07,18,11,41,24.10
2017,07,18,11,42,24.10
2017,07,18,11,43,24.10
2017,07,18,11,44,24.10
2017,07,18,11,45,24.10
2017,07,18,11,46,24.20
2017,07,18,11,47,24.30
2017,07,18,11,48,24.40
2017,07,18,11,49,24.40
2017,07,18,11,50,24.40
2017,07,18,11,51,24.40
2017,07,18,11,52,24.30
2017,07,18,11,53,24.30
2017,07,18,11,54,24.30
2017,07,18,11,55,24.40
2017,07,18,11,56,24.40
2017,07,18,11,57,24.50
2017,07,18,11,58,24.50
2017,07,18,11,59,24.60
2017,07,18,12,00,24.70
2017,07,18,12,01,24.70
2017,07,18,12,02,24.70
2017,07,18,12,03,24.80
2017,07,18,12,04,24.80
2017,07,18,12,05,24.80
2017,07,18,12,06,24.80
2017,07,18,12,07,24.80
2017,07,18,12,08,24.80
2017,07,18,12,09,24.90
2017,07,18,12,10,24.90
2017,07,18,12,11,24.90
2017,07,18,12,12,24.90
2017,07,18,12,13,24.90
2017,07,18,12,14,24.90
2017,07,18,12,15,24.90
2017,07,18,12,16,24.90
2017,07,18,12,17,24.80
2017,07,18,12,18,24.80
2017,07,18,12,19,24.80
2017,07,18,12,20,24.80
2017,07,18,12,21,24.90
2017,07,18,12,22,24.90
2017,07,18,12,23,24.90
2017,07,18,12,24,24.90
2017,07,18,12,25,24.90
2017,07,18,12,26,24.90
2017,07,18,12,27,24.80
2017,07,18,12,28,24.80
2017,07,18,12,29,24.70
2017,07,18,12,30,24.60
2017,07,18,12,31,24.50
2017,07,18,12,32,24.40
2017,07,18,12,33,24.40
2017,07,18,12,34,24.40
2017,07,18,12,35,24.30
2017,07,18,12,36,24.30
2017,07,18,12,37,24.30
2017,07,18,12,38,24.30
2017,07,18,12,39,24.30
2017,07,18,12,40,24.30
2017,07,18,12,41,24.20
2017,07,18,12,42,24.20
2017,07,18,12,43,24.20
2017,07,18,12,44,24.30
2017,07,18,12,45,24.30
2017,07,18,12,46,24.30
2017,07,18,12,47,24.40
2017,07,18,12,48,24.50
2017,07,18,12,49,24.60
2017,07,18,12,50,24.60
2017,07,18,12,51,24.70
2017,07,18,12,52,24.80
2017,07,18,12,53,24.80
2017,07,18,12,54,24.70
2017,07,18,12,55,24.70
2017,07,18,12,56,24.70
2017,07,18,12,57,24.60
2017,07,18,12,58,24.60
2017,07,18,12,59,24.50
2017,07,18,13,00,24.40
2017,07,18,13,01,24.40
2017,07,18,13,02,24.40
2017,07,18,13,03,24.50
2017,07,18,13,04,24.50
2017,07,18,13,05,24.50
2017,07,18,13,06,24.60
2017,07,18,13,07,24.70
2017,07,18,13,08,24.70
2017,07,18,13,09,24.70
2017,07,18,13,10,24.80
2017,07,18,13,11,24.80
2017,07,18,13,12,24.80
2017,07,18,13,13,24.80
2017,07,18,13,14,24.80
2017,07,18,13,15,24.80
2017,07,18,13,16,24.90
2017,07,18,13,17,25.00
2017,07,18,13,18,25.10
2017,07,18,13,19,25.20
2017,07,18,13,20,25.20
2017,07,18,13,21,25.20
2017,07,18,13,22,25.20
2017,07,18,13,23,25.20
2017,07,18,13,24,25.20
2017,07,18,13,25,25.30
2017,07,18,13,26,25.30
2017,07,18,13,27,25.30
2017,07,18,13,28,25.30
2017,07,18,13,29,25.30
2017,07,18,13,30,25.30
2017,07,18,13,31,25.30
2017,07,18,13,32,25.40
2017,07,18,13,33,25.50
2017,07,18,13,34,25.60
2017,07,18,13,35,25.60
2017,07,18,13,36,25.70
2017,07,18,13,37,25.70
2017,07,18,13,38,25.70
2017,07,18,13,39,25.80
2017,07,18,13,40,25.90
2017,07,18,13,41,25.90
2017,07,18,13,42,26.00
2017,07,18,13,43,26.00
2017,07,18,13,44,26.00
2017,07,18,13,45,26.10
2017,07,18,13,46,26.10
2017,07,18,13,47,26.10
2017,07,18,13,48,26.10
2017,07,18,13,49,26.10
2017,07,18,13,50,26.10
2017,07,18,13,51,26.10
2017,07,18,13,52,26.20
2017,07,18,13,53,26.20
2017,07,18,13,54,26.20
2017,07,18,13,55,26.20
2017,07,18,13,56,26.20
2017,07,18,13,57,26.20
2017,07,18,13,58,26.10
2017,07,18,13,59,26.10
2017,07,18,14,00,26.10
2017,07,18,14,01,26.10
2017,07,18,14,02,26.20
2017,07,18,14,03,26.30
2017,07,18,14,04,26.30
2017,07,18,14,05,26.20
2017,07,18,14,06,26.20
2017,07,18,14,07,26.10
2017,07,18,14,08,26.00
2017,07,18,14,09,25.90
2017,07,18,14,10,25.80
2017,07,18,14,11,25.80
2017,07,18,14,12,25.70
2017,07,18,14,13,25.70
2017,07,18,14,14,25.80
2017,07,18,14,15,25.80
2017,07,18,14,16,25.90
2017,07,18,14,17,25.90
2017,07,18,14,18,25.90
2017,07,18,14,19,25.90
2017,07,18,14,20,26.00
2017,07,18,14,21,26.10
2017,07,18,14,22,26.20
2017,07,18,14,23,26.20
2017,07,18,14,24,26.20
2017,07,18,14,25,26.20
2017,07,18,14,26,26.20
2017,07,18,14,27,26.20
2017,07,18,14,28,26.20
2017,07,18,14,29,26.20
2017,07,18,14,30,26.20
2017,07,18,14,31,26.20
2017,07,18,14,32,26.20
2017,07,18,14,33,26.20
2017,07,18,14,34,26.30
2017,07,18,14,35,26.30
2017,07,18,14,36,26.30
2017,07,18,14,37,26.20
2017,07,18,14,38,26.20
2017,07,18,14,39,26.20
2017,07,18,14,40,26.30
2017,07,18,14,41,26.40
2017,07,18,14,42,26.50
2017,07,18,14,43,26.50
2017,07,18,14,44,26.50
2017,07,18,14,45,26.50
2017,07,18,14,46,26.40
2017,07,18,14,47,26.30
2017,07,18,14,48,26.20
2017,07,18,14,49,26.10
2017,07,18,14,50,26.00
2017,07,18,14,51,25.90
2017,07,18,14,52,25.90
2017,07,18,14,53,25.90
2017,07,18,14,54,25.90
2017,07,18,14,55,26.00
2017,07,18,14,56,26.00
2017,07,18,14,57,26.10
2017,07,18,14,58,26.10
2017,07,18,14,59,26.10
2017,07,18,15,00,26.20
2017,07,18,15,01,26.20
2017,07,18,15,02,26.20
2017,07,18,15,03,26.10
2017,07,18,15,04,26.10
2017,07,18,15,05,26.10
2017,07,18,15,06,26.10
2017,07,18,15,07,26.10
2017,07,18,15,08,26.10
2017,07,18,15,09,26.20
2017,07,18,15,10,26.30
2017,07,18,15,11,26.30
2017,07,18,15,12,26.40
2017,07,18,15,13,26.40
2017,07,18,15,14,26.50
2017,07,18,15,15,26.60
2017,07,18,15,16,26.70
2017,07,18,15,17,26.70
2017,07,18,15,18,26.80
2017,07,18,15,19,26.80
2017,07,18,15,20,26.90
2017,07,18,15,21,26.90
2017,07,18,15,22,27.00
2017,07,18,15,23,27.00
2017,07,18,15,24,27.00
2017,07,18,15,25,27.00
2017,07,18,15,26,27.00
2017,07,18,15,27,27.00
2017,07,18,15,28,27.00
2017,07,18,15,29,27.00
2017,07,18,15,30,27.00
2017,07,18,15,31,27.00
2017,07,18,15,32,27.00
2017,07,18,15,33,26.90
2017,07,18,15,34,26.90
2017,07,18,15,35,26.90
2017,07,18,15,36,26.90
2017,07,18,15,37,26.90
2017,07,18,15,38,27.00
2017,07,18,15,39,27.10
2017,07,18,15,40,27.10
2017,07,18,15,41,27.20
2017,07,18,15,42,27.30
2017,07,18,15,43,27.30
2017,07,18,15,44,27.40
2017,07,18,15,45,27.50
2017,07,18,15,46,27.50
2017,07,18,15,47,27.30
2017,07,18,15,48,27.20
2017,07,18,15,49,27.10
2017,07,18,15,50,27.10
2017,07,18,15,51,27.00
2017,07,18,15,52,26.90
2017,07,18,15,53,26.80
2017,07,18,15,54,26.70
2017,07,18,15,55,26.70
2017,07,18,15,56,26.80
2017,07,18,15,57,26.80
2017,07,18,15,58,26.70
2017,07,18,15,59,26.60
2017,07,18,16,00,26.40
2017,07,18,16,01,26.30
2017,07,18,16,02,26.20
2017,07,18,16,03,26.10
2017,07,18,16,04,26.10
2017,07,18,16,05,26.10
2017,07,18,16,06,26.10
2017,07,18,16,07,26.10
2017,07,18,16,08,26.20
2017,07,18,16,09,26.20
2017,07,18,16,10,26.30
2017,07,18,16,11,26.30
2017,07,18,16,12,26.40
2017,07,18,16,13,26.60
2017,07,18,16,14,26.70
2017,07,18,16,15,26.80
2017,07,18,16,16,26.90
2017,07,18,16,17,26.90
2017,07,18,16,18,26.90
2017,07,18,16,19,26.90
2017,07,18,16,20,26.80
2017,07,18,16,21,26.80
2017,07,18,16,22,26.70
2017,07,18,16,23,26.60
2017,07,18,16,24,26.50
2017,07,18,16,25,26.40
2017,07,18,16,26,26.30
2017,07,18,16,27,26.30
2017,07,18,16,28,26.40
2017,07,18,16,29,26.40
2017,07,18,16,30,26.30
2017,07,18,16,31,26.30
2017,07,18,16,32,26.30
2017,07,18,16,33,26.30
2017,07,18,16,34,26.30
2017,07,18,16,35,26.40
2017,07,18,16,36,26.40
2017,07,18,16,37,26.50
2017,07,18,16,38,26.50
2017,07,18,16,39,26.60
2017,07,18,16,40,26.60
2017,07,18,16,41,26.70
2017,07,18,16,42,26.70
2017,07,18,16,43,26.70
2017,07,18,16,44,26.70
2017,07,18,16,45,26.70
2017,07,18,16,46,26.70
2017,07,18,16,47,26.80
2017,07,18,16,48,26.80
2017,07,18,16,49,26.90
2017,07,18,16,50,26.90
2017,07,18,16,51,27.00
2017,07,18,16,52,27.10
2017,07,18,16,53,27.10
2017,07,18,16,54,27.20
2017,07,18,16,55,27.30
2017,07,18,16,56,27.40
2017,07,18,16,57,27.50
2017,07,18,16,58,27.60
2017,07,18,16,59,27.60
2017,07,18,17,00,27.70
2017,07,18,17,01,27.60
2017,07,18,17,02,27.60
2017,07,18,17,03,27.60
2017,07,18,17,04,27.60
2017,07,18,17,05,27.60
2017,07,18,17,06,27.60
2017,07,18,17,07,27.50
2017,07,18,17,08,27.40
2017,07,18,17,09,27.30
2017,07,18,17,10,27.20
2017,07,18,17,11,27.10
2017,07,18,17,12,27.10
2017,07,18,17,13,27.00
2017,07,18,17,14,26.90
2017,07,18,17,15,26.80
2017,07,18,17,16,26.80
2017,07,18,17,17,26.70
2017,07,18,17,18,26.70
2017,07,18,17,19,26.70
2017,07,18,17,20,26.70
2017,07,18,17,21,26.60
2017,07,18,17,22,26.60
2017,07,18,17,23,26.50
2017,07,18,17,24,26.40